Weather History for Honolulu, HI

Change the Weather History Date:

Friday, December 27, 2013

  Actual Average Record
Temperature  
Mean Temperature 78 °F 74 °F  
Max Temperature 83 °F 81 °F 87 °F (2006)
Min Temperature 73 °F 67 °F 59 °F (1978)
Degree Days  
Heating Degree Days 0 0  
Month to date heating degree days 0 0  
Since 1 July heating degree days 0 0  
Cooling Degree Days 13 9  
Month to date cooling degree days 291 267  
Year to date cooling degree days 4428 4593  
Growing Degree Days 27 (Base 50)    
Moisture  
Dew Point 62 °F    
Average Humidity 60    
Maximum Humidity 68    
Minimum Humidity 51    
Precipitation  
Precipitation 0.00 in 0.11 in 3.34 in (2004)
Month to date precipitation 3.64 2.81  
Year to date precipitation 16.18 16.67  
Snow  
Snow 0.00 in - - ()
Month to date snowfall 0.0  
Since 1 July snowfall 0.0  
Snow Depth 0.00 in    
Sea Level Pressure  
Sea Level Pressure 29.95 in    
Wind  
Wind Speed 9 mph (NE)    
Max Wind Speed 23 mph    
Max Gust Speed 30 mph    
Visibility 10 miles    
Events      
T = Trace of Precipitation, MM = Missing Value Source: NWS Daily Summary

Daily Weather History Graph

Daily Weather History Graph

Search for Another Location

Airport:

Trip Planner

Search our weather history database for the weather conditions in past years. The results will help you decide how hot, cold, wet, or windy it might be!

Date:

Astronomy

Dec. 27, 2013 Rise Set
Actual Time 7:07 AM HST 5:58 PM HST
Civil Twilight 6:43 AM HST 6:22 PM HST
Nautical Twilight 6:15 AM HST 6:50 PM HST
Astronomical Twilight 5:48 AM HST 7:17 PM HST
Moon 2:13 AM HST (12/27) 1:57 PM HST (12/27)
Length of Visible Light 11h 39m
Length of Day
10h 50m
Waning Crescent, 26% of the Moon is Illuminated
Dec 27
Waning Crescent
Jan 1
New
Jan 7
First Quarter
Jan 15
Full
Jan 23
Last Quarter

Hourly Weather History & Observations

Time (HST) Temp. Heat Index Dew Point Humidity Pressure Visibility Wind Dir Wind Speed Gust Speed Precip Events Conditions
12:53 AM 75.0 °F - 63.0 °F 66% 29.97 in 10.0 mi Variable 3.5 mph - N/A   Mostly Cloudy
1:53 AM 75.0 °F - 62.1 °F 64% 29.96 in 10.0 mi NE 5.8 mph - N/A   Mostly Cloudy
2:53 AM 73.9 °F - 61.0 °F 64% 29.95 in 10.0 mi East 6.9 mph - N/A   Scattered Clouds
3:53 AM 73.9 °F - 60.1 °F 62% 29.94 in 10.0 mi NE 11.5 mph - N/A   Scattered Clouds
4:53 AM 73.0 °F - 60.1 °F 64% 29.95 in 10.0 mi ENE 3.5 mph - N/A   Scattered Clouds
5:53 AM 73.0 °F - 61.0 °F 66% 29.95 in 10.0 mi NNE 6.9 mph - N/A   Scattered Clouds
6:53 AM 73.9 °F - 60.1 °F 62% 29.96 in 10.0 mi ENE 12.7 mph - N/A   Partly Cloudy
7:53 AM 75.0 °F - 59.0 °F 57% 29.97 in 10.0 mi ENE 12.7 mph 20.7 mph N/A   Scattered Clouds
8:53 AM 77.0 °F - 60.1 °F 56% 30.00 in 10.0 mi Calm Calm - N/A   Scattered Clouds
9:53 AM 79.0 °F - 60.1 °F 52% 30.01 in 10.0 mi NE 11.5 mph - N/A   Scattered Clouds
10:53 AM 80.1 °F 81.1 °F 61.0 °F 52% 30.01 in 10.0 mi NNE 11.5 mph 21.9 mph N/A   Scattered Clouds
11:53 AM 80.1 °F 81.2 °F 62.1 °F 54% 29.98 in 10.0 mi NE 15.0 mph 20.7 mph N/A   Mostly Cloudy
12:53 PM 81.0 °F 81.9 °F 62.1 °F 52% 29.94 in 10.0 mi ENE 12.7 mph - N/A   Mostly Cloudy
1:53 PM 82.9 °F 83.7 °F 62.1 °F 49% 29.90 in 10.0 mi NNE 15.0 mph 21.9 mph N/A   Scattered Clouds
2:53 PM 82.0 °F 83.0 °F 62.1 °F 51% 29.89 in 10.0 mi East 15.0 mph 23.0 mph N/A   Scattered Clouds
3:53 PM 81.0 °F 81.9 °F 62.1 °F 52% 29.90 in 10.0 mi ENE 10.4 mph 21.9 mph N/A   Scattered Clouds
4:53 PM 79.0 °F - 63.0 °F 58% 29.91 in 10.0 mi NNE 11.5 mph - N/A   Mostly Cloudy
5:53 PM 77.0 °F - 64.0 °F 64% 29.92 in 10.0 mi NNE 10.4 mph - N/A   Mostly Cloudy
6:53 PM 75.9 °F - 64.0 °F 67% 29.95 in 10.0 mi NNE 5.8 mph - N/A   Mostly Cloudy
7:53 PM 75.9 °F - 63.0 °F 64% 29.96 in 10.0 mi NE 8.1 mph - N/A   Mostly Cloudy
8:53 PM 75.9 °F - 63.0 °F 64% 29.97 in 10.0 mi North 5.8 mph - N/A   Mostly Cloudy
9:53 PM 75.9 °F - 63.0 °F 64% 29.98 in 10.0 mi North 5.8 mph - N/A   Mostly Cloudy
10:53 PM 75.9 °F - 64.0 °F 67% 29.98 in 10.0 mi North 3.5 mph - N/A   Mostly Cloudy
11:53 PM 75.9 °F - 64.0 °F 67% 29.98 in 10.0 mi NE 6.9 mph - N/A   Mostly Cloudy